User: anonymous
Location: Gipe Farm
(40.9466°N, 95.5370°W)
Time: 13:00:27
(UTC-05:00)
Language:

Cosmos 1842 - Orbit

View from above orbital plane
View from above orbital plane
View from above satellite
View from above satellite

Ground track
Ground track

The orbit data is extracted from the following two-line orbital elements,

1 17911U 87038A   14261.50225380  .00002839  00000-0  18853-3 0  5697
2 17911 082.4882 092.9781 0013669 066.6495 293.6170 15.06782355490519
Epoch (UTC): 18 September 2014 12:03:14
Eccentricity: 0.0013669
inclination: 82.4882°
perigee height: 536 km
apogee height: 555 km
right ascension of ascending node: 92.9781°
argument of perigee: 66.6495°
revolutions per day: 15.06782355
mean anomaly at epoch: 293.6170°
orbit number at epoch: 49051

The dashed part of the orbit path shows where the satellite is in the earth's shadow,  

DLR